Weather History for Crestview, FL

Change the Weather History Date:

Thursday, December 27, 2012

  Actual Average Record
Temperature  
Mean Temperature 42 °F -  
Max Temperature 52 °F - - ()
Min Temperature 32 °F - - ()
Degree Days  
Heating Degree Days 23    
Moisture  
Dew Point 31 °F    
Average Humidity 75    
Maximum Humidity 94    
Minimum Humidity 45    
Precipitation  
Precipitation 0.00 in - - ()
Sea Level Pressure  
Sea Level Pressure 30.11 in    
Wind  
Wind Speed 6 mph (NNW)    
Max Wind Speed 13 mph    
Max Gust Speed -    
Visibility 10 miles    
Events      
T = Trace of Precipitation, MM = Missing Value Source: NWS Daily Summary

Daily Weather History Graph

Daily Weather History Graph

Search for Another Location

Airport:

Trip Planner

Search our weather history database for the weather conditions in past years. The results will help you decide how hot, cold, wet, or windy it might be!

Date:

Astronomy

Dec. 27, 2012 Rise Set
Actual Time 6:42 AM CST 4:52 PM CST
Civil Twilight 6:15 AM CST 5:19 PM CST
Nautical Twilight 5:45 AM CST 5:49 PM CST
Astronomical Twilight 5:16 AM CST 6:18 PM CST
Moon 4:33 PM CST (12/27) 5:54 AM CST (12/27)
Length of Visible Light 11h 03m
Length of Day
10h 10m
Full, 100% of the Moon is Illuminated
Dec 27
Full
Dec 28
Full
Jan 4
Last Quarter
Jan 11
New
Jan 18
First Quarter

Hourly Weather History & Observations

Time (CST) Temp. Windchill Dew Point Humidity Pressure Visibility Wind Dir Wind Speed Gust Speed Precip Events Conditions
12:55 AM 33.3 °F 26.4 °F 29.7 °F 87% 30.11 in 10.0 mi NNW 8.1 mph - N/A   Clear
1:06 AM 33.8 °F 28.6 °F 30.2 °F 87% 30.11 in 10.0 mi NW 5.8 mph - N/A   Mostly Cloudy
1:55 AM 35.2 °F 30.3 °F 30.6 °F 83% 30.12 in 10.0 mi NNW 5.8 mph - N/A   Overcast
2:55 AM 36.5 °F 29.7 °F 30.7 °F 80% 30.11 in 10.0 mi North 9.2 mph - N/A   Overcast
3:28 AM 37.4 °F 30.8 °F 30.2 °F 75% 30.11 in 10.0 mi NNW 9.2 mph - N/A   Overcast
3:42 AM 37.4 °F 29.8 °F 30.2 °F 75% 30.11 in 10.0 mi North 11.5 mph - N/A   Overcast
3:55 AM 36.7 °F 28.4 °F 30.2 °F 77% 30.11 in 10.0 mi North 12.7 mph - N/A   Overcast
4:55 AM 36.0 °F 29.0 °F 29.7 °F 78% 30.11 in 10.0 mi North 9.2 mph - N/A   Overcast
4:57 AM 35.6 °F 29.9 °F 30.2 °F 81% 30.11 in 10.0 mi North 6.9 mph - N/A   Overcast
5:55 AM 34.9 °F 28.3 °F 28.8 °F 78% 30.14 in 10.0 mi North 8.1 mph - N/A   Overcast
6:55 AM 34.0 °F 26.6 °F 28.2 °F 79% 30.13 in 10.0 mi North 9.2 mph - N/A   Overcast
7:55 AM 35.1 °F 26.9 °F 29.3 °F 80% 30.14 in 10.0 mi North 11.5 mph - N/A   Overcast
8:55 AM 36.3 °F 30.8 °F 29.5 °F 76% 30.18 in 10.0 mi North 6.9 mph - N/A   Overcast
9:36 AM 37.4 °F 33.8 °F 30.2 °F 75% 30.17 in 10.0 mi NW 4.6 mph - N/A   Mostly Cloudy
9:40 AM 37.4 °F 32.8 °F 30.2 °F 75% 30.19 in 10.0 mi NW 5.8 mph - N/A   Scattered Clouds
9:55 AM 38.7 °F 33.6 °F 29.7 °F 70% 30.19 in 10.0 mi NNW 6.9 mph - N/A   Partly Cloudy
10:55 AM 42.8 °F 40.1 °F 30.6 °F 62% 30.18 in 10.0 mi North 4.6 mph - N/A   Scattered Clouds
11:55 AM 46.0 °F - 30.7 °F 55% 30.13 in 10.0 mi Variable 2.3 mph - N/A   Mostly Cloudy
12:55 PM 50.0 °F - 32.2 °F 50% 30.10 in 10.0 mi Variable 1.2 mph - N/A   Mostly Cloudy
1:55 PM 51.1 °F - 31.5 °F 47% 30.08 in 10.0 mi NW 4.6 mph - N/A   Scattered Clouds
2:56 PM 52.0 °F - 31.3 °F 45% 30.08 in 10.0 mi WNW 5.8 mph - N/A   Partly Cloudy
3:55 PM 52.3 °F - 31.6 °F 45% 30.06 in 10.0 mi NNW 2.3 mph - N/A   Partly Cloudy
4:55 PM 48.4 °F - 36.0 °F 62% 30.07 in 10.0 mi NW 2.3 mph - N/A   Partly Cloudy
5:55 PM 43.0 °F - 34.3 °F 72% 30.13 in 10.0 mi SSE 2.3 mph - N/A   Partly Cloudy
6:55 PM 40.3 °F - 36.0 °F 85% 30.12 in 10.0 mi Calm Calm - N/A   Clear
7:55 PM 36.3 °F - 33.6 °F 90% 30.13 in 10.0 mi Calm Calm - N/A   Clear
8:55 PM 33.8 °F - 32.0 °F 93% 30.10 in 10.0 mi Calm Calm - N/A   Clear
9:55 PM 33.8 °F - 32.4 °F 94% 30.11 in 10.0 mi Calm Calm - N/A   Clear
10:55 PM 32.2 °F - 30.6 °F 94% 30.11 in 10.0 mi Calm Calm - N/A   Scattered Clouds
11:55 PM 32.4 °F - 30.7 °F 94% 29.81 in 10.0 mi NNW 2.3 mph - N/A   Mostly Cloudy